Location: Boiro
(42.6475°N, 8.8834°W)
Time: 23:28:40
(UTC+01:00)

Altair - Pass Details

Date: 05 December 2021
Orbit: 1501 x 1683 km, 47.2° (Epoch: 18 January)

Event Time Altitude Azimuth Distance (km) Brightness Sun altitude
Rises 19:58:30 0° 279° (W) 4,727 11.3 -20.7°
Reaches altitude 10° 20:01:39 10° 282° (WNW) 3,721 10.5 -21.3°
Maximum altitude 20:10:58 68° 5° (N) 1,615 7.5 -23.0°
Enters shadow 20:14:53 38° 75° (ENE) 2,143 7.7 -23.7°
Drops below altitude 10° 20:20:06 10° 88° (E) 3,651 - -24.6°
Sets 20:23:09 0° 92° (E) 4,633 - -25.2°
